STPSAT-3 (39380 NORAD) Tracking and Keplerian Element Data

This shows tracking and keplerian element data for the satellite.

Feedback or suggestion? Click here.




ElementValue
Catalog39380
NameSTPSAT-3
Epoch Orbit27865
Epoch Day316.13944732
Epoch Year2018
RAAN320.3979
Inclination40.5012
Eccentricity0.0003709
Argument of Perigee306.6212
Mean Anonmoly53.426
Mean Motion15.3642862
Decay Rate9.41E-06
L11 39380U 13064A 18316.13944732 .00000941 00000-0 32133-4 0 9999
L22 39380 40.5012 320.3979 0003709 306.6212 53.4260 15.36428620278654

Live tracking and technical data element details for STPSAT-3 (NORAD 39380). STPSAT-3 can be tracked NOW for your location showing map with azimuth and elevation plus other details from your city location.

Track the satellite on the map from your city or location and see movement details for azimuth, elevation, latitude, longitude, range, height, and movement on the map or in text.







IsCatalogInMostPopularTable: catalog: 39380, numindb: 79
Update: records affected: 1



GetName: 39380 STPSAT-3

Hit Count: updated at: Tue, 13 Nov 2018 23:07:10 GMT